Weather History for Homestead AFB, FL

Change the Weather History Date:

Tuesday, November 20, 2012

  Actual Average Record
Temperature  
Mean Temperature 63 °F -  
Max Temperature 66 °F 81 °F 88 °F (1986)
Min Temperature 60 °F 61 °F 45 °F (1951)
Degree Days  
Heating Degree Days 2    
Growing Degree Days 13 (Base 50)    
Moisture  
Dew Point 59 °F    
Average Humidity 86    
Maximum Humidity 92    
Minimum Humidity 80    
Precipitation  
Precipitation 0.00 in - - ()
Sea Level Pressure  
Sea Level Pressure 30.02 in    
Wind  
Wind Speed 9 mph (NW)    
Max Wind Speed 15 mph    
Max Gust Speed -    
Visibility 10 miles    
Events      
Averages and records for this station are not official NWS values.
T = Trace of Precipitation, MM = Missing Value Source: NWS Daily Summary

Daily Weather History Graph

Daily Weather History Graph

Search for Another Location

Airport:

Trip Planner

Search our weather history database for the weather conditions in past years. The results will help you decide how hot, cold, wet, or windy it might be!

Date:

Astronomy

Nov. 20, 2012 Rise Set
Actual Time 6:42 AM EST 5:31 PM EST
Civil Twilight 6:18 AM EST 5:55 PM EST
Nautical Twilight 5:50 AM EST 6:23 PM EST
Astronomical Twilight 5:22 AM EST 6:51 PM EST
Moon 12:36 PM EST (11/20) No Moon Set
Length of Visible Light 11h 37m
Length of Day
10h 48m
Waxing Crescent, 51% of the Moon is Illuminated
Nov 20
Waxing Crescent
Nov 28
Full
Dec 6
Last Quarter
Dec 13
New
Dec 20
First Quarter

Hourly Weather History & Observations

Time (EST) Temp. Dew Point Humidity Pressure Visibility Wind Dir Wind Speed Gust Speed Precip Events Conditions
12:55 AM 62.1 °F 56.7 °F 82% 30.05 in 10.0 mi NNW 4.6 mph - N/A   Overcast
1:55 AM 62.4 °F 57.0 °F 82% 30.04 in 10.0 mi NNW 9.2 mph - N/A   Overcast
2:55 AM 61.7 °F 56.3 °F 82% 30.03 in 10.0 mi NNW 10.4 mph - N/A   Overcast
3:55 AM 61.2 °F 56.5 °F 85% 30.02 in 10.0 mi NNW 6.9 mph - N/A   Overcast
4:55 AM 60.8 °F 56.5 °F 86% 30.02 in 10.0 mi NW 9.2 mph - N/A   Overcast
5:55 AM 60.4 °F 56.3 °F 86% 30.02 in 10.0 mi NNW 9.2 mph - N/A   Overcast
6:55 AM 60.4 °F 56.7 °F 87% 30.02 in 10.0 mi NNW 11.5 mph - N/A   Overcast
7:55 AM 61.0 °F 57.2 °F 87% 30.04 in 10.0 mi NNW 12.7 mph - N/A   Overcast
8:16 AM 60.8 °F 57.2 °F 88% 30.04 in 10.0 mi NNW 11.5 mph - N/A   Overcast
8:22 AM 60.8 °F 57.2 °F 88% 30.04 in 10.0 mi NW 12.7 mph - N/A   Overcast
8:31 AM 60.8 °F 57.2 °F 88% 30.05 in 10.0 mi NNW 11.5 mph - N/A   Overcast
8:40 AM 60.8 °F 57.2 °F 88% 30.05 in 10.0 mi NNW 11.5 mph - N/A   Overcast
8:49 AM 60.8 °F 57.2 °F 88% 30.05 in 10.0 mi NW 11.5 mph - N/A   Overcast
8:55 AM 61.5 °F 58.1 °F 89% 30.05 in 10.0 mi NW 11.5 mph - N/A   Overcast
9:17 AM 62.6 °F 59.0 °F 88% 30.06 in 10.0 mi NW 11.5 mph - N/A   Overcast
9:33 AM 62.6 °F 59.0 °F 88% 30.06 in 10.0 mi North 12.7 mph - N/A   Overcast
9:55 AM 62.4 °F 58.6 °F 87% 30.06 in 10.0 mi NNW 13.8 mph - N/A   Overcast
10:21 AM 62.6 °F 59.0 °F 88% 30.06 in 10.0 mi NNW 12.7 mph - N/A   Overcast
10:29 AM 62.6 °F 59.0 °F 88% 30.06 in 10.0 mi NNW 15.0 mph - N/A   Overcast
10:55 AM 62.8 °F 58.5 °F 86% 30.05 in 10.0 mi NW 12.7 mph - N/A   Overcast
11:55 AM 63.7 °F 59.2 °F 85% 30.04 in 10.0 mi NW 11.5 mph - N/A   Overcast
12:46 PM 64.4 °F 59.0 °F 83% 30.01 in 10.0 mi NW 11.5 mph - N/A   Overcast
12:55 PM 63.9 °F 59.4 °F 85% 30.01 in 10.0 mi NW 13.8 mph - N/A   Overcast
1:29 PM 64.4 °F 59.0 °F 83% 29.99 in 10.0 mi NW 10.4 mph - N/A   Light Drizzle
1:38 PM 64.4 °F 59.0 °F 83% 29.99 in 10.0 mi NNW 10.4 mph - N/A   Overcast
1:46 PM 64.4 °F 59.0 °F 83% 29.98 in 10.0 mi NW 12.7 mph - N/A   Overcast
1:55 PM 64.9 °F 59.5 °F 83% 29.98 in 10.0 mi North 11.5 mph - 0.00 in   Overcast
2:55 PM 65.5 °F 59.9 °F 82% 29.97 in 10.0 mi NNW 9.2 mph - N/A   Overcast
3:55 PM 66.2 °F 60.3 °F 81% 29.96 in 10.0 mi NNW 10.4 mph - N/A   Overcast
4:55 PM 66.9 °F 60.6 °F 80% 29.97 in 10.0 mi NNW 6.9 mph - N/A   Overcast
5:14 PM 66.2 °F 60.8 °F 83% 29.97 in 10.0 mi WNW 5.8 mph - N/A   Scattered Clouds
5:55 PM 64.9 °F 60.1 °F 84% 29.96 in 10.0 mi West 4.6 mph - N/A   Clear
6:55 PM 62.2 °F 59.2 °F 90% 29.98 in 10.0 mi SW 4.6 mph - N/A   Mostly Cloudy
7:55 PM 61.7 °F 59.4 °F 92% 29.99 in 10.0 mi WSW 5.8 mph - N/A   Clear
8:55 PM 63.5 °F 60.6 °F 90% 30.00 in 10.0 mi West 9.2 mph - N/A   Scattered Clouds
9:55 PM 62.6 °F 60.1 °F 91% 30.01 in 10.0 mi WNW 5.8 mph - N/A   Clear
10:55 PM 62.8 °F 60.4 °F 92% 30.00 in 10.0 mi NW 4.6 mph - N/A   Clear
11:55 PM 63.0 °F 60.4 °F 91% 30.00 in 10.0 mi NW 8.1 mph - N/A   Clear